KN4FVH Weather Reports


Display with metric or nautical units.
time (UTC)temp
F
wind
direction
speed
MPH
gust
MPH
rain 1hr
in
rain 24hr
in
rain mn
in
humidity
%
barometer
mb
20260504194008 77 218 1.0 1.0 0.00 0.00 0.00 34 1015.9
20260504193506 77 212 1.0 1.0 0.00 0.00 0.00 34 1015.9
20260504193005 77 137 1.0 1.0 0.00 0.00 0.00 37 1016.1
20260504192502 78 259 0.0 0.0 0.00 0.00 0.00 33 1015.9
20260504192000 78 175 0.0 0.0 0.00 0.00 0.00 35 1015.9
20260504191458 78 215 1.0 1.0 0.00 0.00 0.00 33 1015.9
20260504190953 77 220 0.0 1.0 0.00 0.00 0.00 34 1016.2
20260504190449 77 197 1.0 1.0 0.00 0.00 0.00 34 1016.1
20260504185946 77 210 0.0 1.0 0.00 0.00 0.00 32 1016.3
20260504185443 77 212 0.0 1.0 0.00 0.00 0.00 33 1016.5
20260504184939 76 209 0.0 1.0 0.00 0.00 0.00 34 1016.3
20260504184435 75 328 2.0 2.0 0.00 0.00 0.00 34 1016.8
20260504183931 76 280 1.0 1.0 0.00 0.00 0.00 33 1016.6
20260504183428 77 327 2.0 2.0 0.00 0.00 0.00 33 1016.6
20260504182926 76 212 1.0 1.0 0.00 0.00 0.00 33 1016.4
20260504182423 76 318 2.0 3.0 0.00 0.00 0.00 33 1016.7
20260504181920 76 250 0.0 0.0 0.00 0.00 0.00 36 1016.6
20260504181417 76 196 0.0 1.0 0.00 0.00 0.00 35 1016.8
20260504180916 76 210 0.0 0.0 0.00 0.00 0.00 34 1016.6
20260504180414 75 223 1.0 1.0 0.00 0.00 0.00 36 1016.9
20260504175912 75 182 0.0 0.0 0.00 0.00 0.00 38 1016.9
20260504175409 74 323 0.0 0.0 0.00 0.00 0.00 38 1016.9
20260504174907 74 196 0.0 0.0 0.00 0.00 0.00 42 1016.9
20260504174404 73 303 1.0 1.0 0.00 0.00 0.00 39 1017.2
20260504173901 73 330 2.0 2.0 0.00 0.00 0.00 39 1016.9
20260504173357 73 340 1.0 2.0 0.00 0.00 0.00 40 1017.2
20260504172855 72 250 0.0 0.0 0.00 0.00 0.00 41 1017.3
20260504172351 72 311 2.0 2.0 0.00 0.00 0.00 39 1017.4
20260504171847 72 336 3.0 3.0 0.00 0.00 0.00 40 1017.6
20260504171344 73 186 0.0 0.0 0.00 0.00 0.00 39 1017.7
20260504170842 72 200 1.0 1.0 0.00 0.00 0.00 40 1017.7
20260504170338 72 320 2.0 3.0 0.00 0.00 0.00 40 1017.7
20260504160256 69 201 0.0 0.0 0.00 0.00 0.00 48 1018.6
20260504150722 66 180 1.0 1.0 0.00 0.00 0.00 58 1018.6
20260504150219 66 207 0.0 0.0 0.00 0.00 0.00 58 1018.7
20260504141148 62 187 0.0 0.0 0.00 0.00 0.00 66 1018.7
20260504140645 61 209 0.0 0.0 0.00 0.00 0.00 67 1018.9
20260504140140 61 180 1.0 1.0 0.00 0.00 0.00 69 1018.7
20260504130609 57 224 0.0 0.0 0.00 0.00 0.00 77 1019.0
20260504130105 57 198 1.0 1.0 0.00 0.00 0.00 78 1018.9
20260504110456 50 169 0.0 0.0 0.00 0.00 0.00 89 1019.1
20260504100418 50 168 0.0 0.0 0.00 0.00 0.00 87 1018.7
20260504081811 51 167 0.0 0.0 0.00 0.00 0.00 80 1018.8
20260504081308 51 168 0.0 0.0 0.00 0.00 0.00 80 1018.9
20260504080804 51 167 0.0 0.0 0.00 0.00 0.00 79 1018.7
20260504080301 51 167 0.0 0.0 0.00 0.00 0.00 79 1018.7
20260504070229 52 163 0.0 0.0 0.00 0.00 0.00 70 1018.7
20260504060149 52 189 0.0 0.0 0.00 0.00 0.00 64 1018.9
20260504050617 49 319 0.0 0.0 0.00 0.00 0.00 71 1019.1
20260504050114 49 319 0.0 0.0 0.00 0.00 0.00 73 1019.0
20260504045611 49 319 0.0 0.0 0.00 0.00 0.00 75 1019.1
20260504045106 49 319 0.0 0.0 0.00 0.00 0.00 75 1019.0
20260504044604 49 319 0.0 0.0 0.00 0.00 0.00 74 1019.0
20260504044100 49 319 0.0 0.0 0.00 0.00 0.00 74 1019.1
20260504043558 49 319 0.0 0.0 0.00 0.00 0.00 75 1019.1
20260504043055 49 319 0.0 0.0 0.00 0.00 0.00 75 1019.2
20260504042552 49 319 0.0 0.0 0.00 0.00 0.00 76 1019.1
20260504042049 49 319 0.0 0.0 0.00 0.00 0.00 76 1019.3
20260504041545 49 319 0.0 0.0 0.00 0.00 0.00 77 1019.1
20260504041041 49 319 0.0 0.0 0.00 0.00 0.00 79 1019.3
20260504040539 49 319 0.0 0.0 0.00 0.00 0.00 79 1019.2
20260504040035 49 319 0.0 0.0 0.00 0.00 0.00 78 1019.2
20260504035532 49 319 0.0 0.0 0.00 0.00 0.00 77 1019.3
20260504035028 49 319 0.0 0.0 0.00 0.00 0.00 77 1018.9
20260504034526 49 319 0.0 0.0 0.00 0.00 0.00 73 1019.1
20260504034023 49 319 0.0 0.0 0.00 0.00 0.00 75 1019.0
20260504033521 49 319 0.0 0.0 0.00 0.00 0.00 74 1019.0
20260504033018 49 319 0.0 0.0 0.00 0.00 0.00 71 1018.9
20260504032515 49 319 0.0 0.0 0.00 0.00 0.00 72 1018.9
20260504032012 50 319 0.0 0.0 0.00 0.00 0.00 72 1019.2
20260504031509 50 319 0.0 0.0 0.00 0.00 0.00 73 1019.0
20260504031005 50 319 0.0 0.0 0.00 0.00 0.00 73 1018.9
20260504030503 50 319 0.0 0.0 0.00 0.00 0.00 76 1019.0
20260504025958 50 319 0.0 0.0 0.00 0.00 0.00 72 1018.9
20260504025455 50 319 0.0 0.0 0.00 0.00 0.00 71 1018.7
20260504024952 50 319 0.0 0.0 0.00 0.00 0.00 72 1018.8
20260504024449 50 319 0.0 0.0 0.00 0.00 0.00 73 1019.0
20260504023946 50 319 0.0 0.0 0.00 0.00 0.00 71 1018.9
20260504023443 50 319 0.0 0.0 0.00 0.00 0.00 74 1018.8
20260504022938 51 319 0.0 0.0 0.00 0.00 0.00 73 1018.9
20260504022435 51 319 0.0 0.0 0.00 0.00 0.00 71 1018.6
20260504021931 51 319 0.0 0.0 0.00 0.00 0.00 69 1018.7
20260504021429 51 319 0.0 0.0 0.00 0.00 0.00 71 1018.8
20260504020926 51 319 0.0 0.0 0.00 0.00 0.00 69 1018.9
20260504020422 51 319 0.0 0.0 0.00 0.00 0.00 67 1018.7
20260504015919 51 319 0.0 0.0 0.00 0.00 0.00 67 1018.5
20260504015415 52 319 0.0 0.0 0.00 0.00 0.00 66 1018.9
20260504014911 52 319 0.0 0.0 0.00 0.00 0.00 67 1018.8
20260504014407 52 319 0.0 0.0 0.00 0.00 0.00 67 1018.8
20260504013904 53 319 0.0 0.0 0.00 0.00 0.00 66 1018.7
20260504013403 53 319 0.0 0.0 0.00 0.00 0.00 64 1018.7
20260504012858 53 319 0.0 0.0 0.00 0.00 0.00 61 1018.4
20260504012357 53 319 0.0 0.0 0.00 0.00 0.00 60 1018.5
20260504011854 54 319 0.0 0.0 0.00 0.00 0.00 61 1018.6
20260504011350 54 319 0.0 0.0 0.00 0.00 0.00 65 1018.4
20260504010846 54 319 0.0 0.0 0.00 0.00 0.00 58 1018.4
20260504010342 55 319 0.0 0.0 0.00 0.00 0.00 55 1018.3
20260504005839 55 319 0.0 0.0 0.00 0.00 0.00 56 1018.1
20260504005336 55 319 0.0 0.0 0.00 0.00 0.00 54 1018.2
20260504004833 55 319 0.0 0.0 0.00 0.00 0.00 55 1018.1
20260504004331 56 319 0.0 0.0 0.00 0.00 0.00 53 1018.3
20260504003827 56 319 0.0 0.0 0.00 0.00 0.00 51 1018.1
20260504003324 56 319 0.0 0.0 0.00 0.00 0.00 49 1018.1
20260504002821 57 319 0.0 0.0 0.00 0.00 0.00 50 1018.0
20260504002318 57 319 0.0 0.0 0.00 0.00 0.00 48 1018.1
20260504001815 58 319 0.0 0.0 0.00 0.00 0.00 47 1017.8
20260504001312 59 319 0.0 0.0 0.00 0.00 0.00 46 1018.0
20260504000809 59 319 0.0 0.0 0.00 0.00 0.00 44 1017.9
20260504000306 59 319 0.0 0.0 0.00 0.00 0.00 46 1017.8
20260503235804 60 318 0.0 0.0 0.00 0.00 0.00 44 1017.8
20260503235302 61 318 0.0 0.0 0.00 0.00 0.00 40 1017.8
20260503234759 61 318 0.0 0.0 0.00 0.00 0.00 42 1017.9
20260503234256 62 318 0.0 0.0 0.00 0.00 0.00 37 1017.7
20260503233754 62 318 0.0 0.0 0.00 0.00 0.00 35 1017.8
20260503233249 62 318 0.0 0.0 0.00 0.00 0.00 35 1017.7
20260503232746 63 318 0.0 0.0 0.00 0.00 0.00 34 1017.7
20260503232244 63 319 0.0 0.0 0.00 0.00 0.00 33 1017.7
20260503231742 63 319 0.0 0.0 0.00 0.00 0.00 34 1017.8
20260503231238 64 335 0.0 0.0 0.00 0.00 0.00 32 1017.8
20260503230734 64 5 0.0 0.0 0.00 0.00 0.00 33 1017.7
20260503230232 64 8 0.0 0.0 0.00 0.00 0.00 35 1017.9
20260503225729 64 332 0.0 1.0 0.00 0.00 0.00 33 1017.7
20260503225229 64 336 1.0 1.0 0.00 0.00 0.00 32 1017.6
20260503224726 64 349 2.0 2.0 0.00 0.00 0.00 31 1017.9
20260503224224 64 243 0.0 0.0 0.00 0.00 0.00 31 1017.6
20260503223721 65 313 0.0 1.0 0.00 0.00 0.00 32 1017.7
20260503223219 65 351 1.0 1.0 0.00 0.00 0.00 32 1017.8
20260503222715 65 1 0.0 1.0 0.00 0.00 0.00 33 1017.9
20260503222213 64 17 1.0 1.0 0.00 0.00 0.00 35 1017.4
20260503221711 64 328 0.0 0.0 0.00 0.00 0.00 33 1017.7
20260503221209 64 304 0.0 0.0 0.00 0.00 0.00 33 1017.6
20260503220705 64 297 0.0 0.0 0.00 0.00 0.00 31 1017.6
20260503220202 65 329 0.0 0.0 0.00 0.00 0.00 31 1017.6
20260503215659 65 205 0.0 0.0 0.00 0.00 0.00 32 1017.5
20260503215155 65 308 0.0 0.0 0.00 0.00 0.00 32 1017.7
20260503214654 65 346 0.0 1.0 0.00 0.00 0.00 33 1017.7
20260503214149 65 339 0.0 0.0 0.00 0.00 0.00 33 1017.8
20260503213643 65 339 0.0 0.0 0.00 0.00 0.00 33 1017.8
20260503213139 64 23 2.0 3.0 0.00 0.00 0.00 33 1017.7
20260503212637 64 3 1.0 1.0 0.00 0.00 0.00 34 1017.9
20260503212134 64 222 0.0 0.0 0.00 0.00 0.00 33 1017.8
20260503211632 64 224 2.0 2.0 0.00 0.00 0.00 33 1018.0
20260503211127 64 237 1.0 1.0 0.00 0.00 0.00 33 1017.9
20260503210624 64 326 1.0 1.0 0.00 0.00 0.00 34 1017.9
20260503210120 64 331 0.0 1.0 0.00 0.00 0.00 34 1017.8
20260503205616 64 299 1.0 1.0 0.00 0.00 0.00 31 1017.9
20260503205113 64 210 0.0 0.0 0.00 0.00 0.00 32 1018.0
20260503204610 64 22 0.0 1.0 0.00 0.00 0.00 35 1018.0
20260503204107 64 309 0.0 0.0 0.00 0.00 0.00 33 1018.2
20260503203604 64 351 2.0 2.0 0.00 0.00 0.00 32 1018.0
20260503203101 64 352 1.0 2.0 0.00 0.00 0.00 33 1018.0
20260503202559 64 337 0.0 0.0 0.00 0.00 0.00 33 1018.1
20260503202056 64 339 2.0 2.0 0.00 0.00 0.00 32 1018.2
20260503201554 64 333 0.0 1.0 0.00 0.00 0.00 33 1018.2
20260503201051 63 345 0.0 0.0 0.00 0.00 0.00 33 1018.3
20260503200547 64 330 3.0 5.0 0.00 0.00 0.00 31 1018.3
20260503200044 63 19 0.0 1.0 0.00 0.00 0.00 34 1018.5
20260503195541 63 33 1.0 1.0 0.00 0.00 0.00 35 1018.4
20260503195038 63 359 1.0 1.0 0.00 0.00 0.00 33 1018.5
20260503194535 63 318 1.0 1.0 0.00 0.00 0.00 33 1018.7